Date String (YYYY-MM-DD hh:mm:ss) UTC,Instrument flags,Ambient pressure (hPa),Sample flow (lpm),Bypass flow (lpm),Sample temperature (°C),Ambient temperature (°C),ASC tube jacket temperature (°C),LED temperature (°C),Box temperature (°C),Sample RH (%),Span deviation,Mass concentration (μg/m³),Mass concentration (μg/m³),Mass concentration (μg/m³)
DateTimeUTC,F1_M11,P_M11,Q1_M11,Q2_M11,T1_M11,T2_M11,T3_M11,T4_M11,T5_M11,U1_M11,ZSPAN_M11,X0_M11,X2_M11,X1_M11
2022-09-28 00:00:00,,0833.1,5.00,0.00,30.1,29.0,00.0,38.8,32.1,18.3,0000.0,0004.99,0002.57,0002.08
2022-09-28 00:01:00,,0833.0,5.00,0.00,30.2,29.0,00.0,38.8,32.1,18.0,0000.0,0005.44,0002.60,0002.09
2022-09-28 00:02:00,,0833.0,5.01,0.00,30.2,28.4,00.0,38.8,32.1,18.2,0000.0,0005.63,0002.62,0002.09
2022-09-28 00:03:00,,0833.0,5.00,0.00,30.1,27.1,00.0,38.8,32.0,18.3,0000.0,0005.51,0002.57,0002.07
2022-09-28 00:04:00,,0833.0,5.00,0.00,30.1,27.0,00.0,38.7,31.9,18.5,0000.0,0005.22,0002.48,0002.05
2022-09-28 00:05:00,,0833.0,5.00,0.00,30.0,27.2,00.0,38.7,31.8,18.7,0000.0,0005.18,0002.47,0002.05
2022-09-28 00:06:00,,0833.1,4.99,0.00,30.0,27.5,00.0,38.7,31.8,19.2,0000.0,0004.30,0002.49,0002.05
2022-09-28 00:07:00,,0833.0,4.99,0.00,30.0,27.8,00.0,38.7,31.8,19.5,0000.0,0004.22,0002.48,0002.05
2022-09-28 00:08:00,,0833.0,5.01,0.00,30.0,28.0,00.0,38.7,31.7,19.6,0000.0,0004.35,0002.49,0002.05
2022-09-28 00:09:00,,0833.1,5.01,0.00,29.9,28.2,00.0,38.7,31.8,19.6,0000.0,0004.42,0002.52,0002.06
2022-09-28 00:10:00,,0833.1,4.99,0.00,30.0,28.3,00.0,38.7,31.8,19.6,0000.0,0004.67,0002.57,0002.07
2022-09-28 00:11:00,,0833.1,5.01,0.00,30.0,28.5,00.0,38.7,31.9,19.7,0000.0,0004.63,0002.57,0002.08
2022-09-28 00:12:00,,0833.1,5.00,0.00,30.0,28.6,00.0,38.7,31.9,19.9,0000.0,0004.90,0002.57,0002.07
2022-09-28 00:13:00,,0833.2,5.00,0.00,30.0,28.7,00.0,38.7,31.9,20.0,0000.0,0004.92,0002.53,0002.06
2022-09-28 00:14:00,,0833.2,5.01,0.00,30.0,28.8,00.0,38.7,32.0,19.9,0000.0,0004.91,0002.53,0002.07
2022-09-28 00:15:00,,0833.2,4.99,0.00,30.0,28.8,00.0,38.7,32.0,19.7,0000.0,0004.97,0002.56,0002.08
2022-09-28 00:16:00,,0833.2,5.00,0.00,30.1,28.9,00.0,38.7,32.0,19.5,0000.0,0004.93,0002.55,0002.08
2022-09-28 00:17:00,,0833.2,5.01,0.00,30.1,28.9,00.0,38.8,32.0,19.4,0000.0,0004.78,0002.52,0002.08
2022-09-28 00:18:00,,0833.2,4.99,0.00,30.1,28.9,00.0,38.8,32.0,19.1,0000.0,0004.69,0002.53,0002.07
2022-09-28 00:19:00,,0833.3,4.99,0.00,30.1,29.0,00.0,38.8,32.1,19.0,0000.0,0004.48,0002.46,0002.05
2022-09-28 00:20:00,,0833.3,5.01,0.00,30.1,29.1,00.0,38.8,32.1,18.5,0000.0,0004.47,0002.41,0002.03
2022-09-28 00:21:00,,0833.3,4.99,0.00,30.2,29.1,00.0,38.8,32.1,18.4,0000.0,0004.29,0002.35,0002.00
2022-09-28 00:22:00,,0833.3,5.01,0.00,30.2,28.7,00.0,38.8,32.1,18.5,0000.0,0004.31,0002.35,0002.01
2022-09-28 00:23:00,,0833.4,4.99,0.00,30.2,27.2,00.0,38.8,32.0,18.5,0000.0,0003.90,0002.31,0001.99
2022-09-28 00:24:00,,0833.4,5.00,0.00,30.1,26.3,00.0,38.7,31.9,18.6,0000.0,0003.28,0002.30,0001.98
2022-09-28 00:25:00,,0833.4,5.01,0.00,30.1,26.3,00.0,38.7,31.7,18.8,0000.0,0003.32,0002.30,0001.97
2022-09-28 00:26:00,,0833.4,5.01,0.00,29.9,26.6,00.0,38.7,31.6,19.0,0000.0,0003.39,0002.29,0001.96
2022-09-28 00:27:00,,0833.4,5.01,0.00,29.9,27.0,00.0,38.6,31.6,19.1,0000.0,0003.30,0002.25,0001.94
2022-09-28 00:28:00,,0833.4,4.99,0.00,29.9,27.4,00.0,38.6,31.6,19.2,0000.0,0003.29,0002.26,0001.93
2022-09-28 00:29:00,,0833.5,5.00,0.00,29.8,27.7,00.0,38.6,31.6,19.2,0000.0,0003.24,0002.24,0001.92
2022-09-28 00:30:00,,0833.5,5.01,0.00,29.8,27.9,00.0,38.6,31.7,19.1,0000.0,0003.31,0002.27,0001.91
2022-09-28 00:31:00,,0833.4,4.99,0.00,29.9,28.1,00.0,38.6,31.7,19.3,0000.0,0003.25,0002.28,0001.92
2022-09-28 00:32:00,,0833.4,5.01,0.00,29.9,28.3,00.0,38.6,31.7,19.3,0000.0,0003.57,0002.29,0001.92
2022-09-28 00:33:00,,0833.4,4.99,0.00,29.9,28.4,00.0,38.6,31.8,19.2,0000.0,0003.53,0002.28,0001.91
2022-09-28 00:34:00,,0833.4,5.00,0.00,29.9,28.6,00.0,38.6,31.8,19.2,0000.0,0003.69,0002.33,0001.92
2022-09-28 00:35:00,,0833.4,5.01,0.00,29.9,28.7,00.0,38.6,31.9,19.2,0000.0,0003.74,0002.35,0001.94
2022-09-28 00:36:00,,0833.4,4.98,0.00,30.0,28.7,00.0,38.6,31.9,19.2,0000.0,0003.80,0002.39,0001.96
2022-09-28 00:37:00,,0833.4,4.99,0.00,30.0,28.8,00.0,38.6,31.9,19.3,0000.0,0003.84,0002.39,0001.98
2022-09-28 00:38:00,,0833.4,5.01,0.00,30.0,28.9,00.0,38.6,32.0,19.3,0000.0,0003.87,0002.42,0001.99
2022-09-28 00:39:00,,0833.4,5.00,0.00,30.0,29.0,00.0,38.7,32.0,19.4,0000.0,0004.33,0002.43,0002.01
2022-09-28 00:40:00,,0833.4,4.99,0.00,30.1,29.0,00.0,38.7,32.0,19.0,0000.0,0004.65,0002.45,0002.04
2022-09-28 00:41:00,,0833.4,5.00,0.00,30.1,29.1,00.0,38.7,32.1,19.2,0000.0,0004.63,0002.48,0002.05
2022-09-28 00:42:00,,0833.4,5.01,0.00,30.1,29.1,00.0,38.7,32.1,19.2,0000.0,0004.67,0002.50,0002.07
2022-09-28 00:43:00,,0833.4,4.99,0.00,30.2,29.2,00.0,38.8,32.1,19.3,0000.0,0004.68,0002.54,0002.09
2022-09-28 00:44:00,,0833.4,5.01,0.00,30.2,29.2,00.0,38.8,32.1,19.2,0000.0,0004.94,0002.58,0002.12
2022-09-28 00:45:00,,0833.4,5.00,0.00,30.2,29.2,00.0,38.8,32.2,19.1,0000.0,0004.95,0002.57,0002.11
2022-09-28 00:46:00,,0833.4,4.99,0.00,30.3,29.2,00.0,38.8,32.2,19.1,0000.0,0004.98,0002.60,0002.12
2022-09-28 00:47:00,,0833.4,5.02,0.00,30.3,28.2,00.0,38.8,32.2,19.0,0000.0,0005.18,0002.64,0002.13
2022-09-28 00:48:00,,0833.4,5.00,0.00,30.2,27.1,00.0,38.8,32.1,19.0,0000.0,0005.10,0002.65,0002.14
2022-09-28 00:49:00,,0833.4,4.99,0.00,30.2,27.1,00.0,38.8,32.0,19.1,0000.0,0005.15,0002.66,0002.15
2022-09-28 00:50:00,,0833.4,5.00,0.00,30.1,27.3,00.0,38.8,31.8,19.2,0000.0,0004.75,0002.65,0002.15
2022-09-28 00:51:00,,0833.5,5.00,0.00,30.1,27.6,00.0,38.7,31.8,19.2,0000.0,0004.36,0002.65,0002.15
2022-09-28 00:52:00,,0833.4,4.99,0.00,30.0,27.9,00.0,38.7,31.8,19.3,0000.0,0004.33,0002.64,0002.15
2022-09-28 00:53:00,,0833.5,5.01,0.00,30.0,28.1,00.0,38.7,31.9,18.9,0000.0,0004.28,0002.63,0002.16
2022-09-28 00:54:00,,0833.4,4.99,0.00,30.0,28.3,00.0,38.7,31.9,18.9,0000.0,0003.93,0002.60,0002.17
2022-09-28 00:55:00,,0833.4,5.01,0.00,30.0,28.5,00.0,38.7,31.9,19.0,0000.0,0003.61,0002.57,0002.16
2022-09-28 00:56:00,,0833.4,4.99,0.00,30.1,28.6,00.0,38.7,32.0,19.0,0000.0,0003.51,0002.58,0002.17
2022-09-28 00:57:00,,0833.4,5.02,0.00,30.1,28.7,00.0,38.7,32.0,19.0,0000.0,0003.53,0002.59,0002.18
2022-09-28 00:58:00,,0833.4,4.99,0.00,30.1,28.8,00.0,38.7,32.0,19.1,0000.0,0003.42,0002.57,0002.18
2022-09-28 00:59:00,,0833.4,5.01,0.00,30.1,28.9,00.0,38.8,32.0,19.1,0000.0,0003.45,0002.58,0002.17
